User: anonymous   Login
Location: Marcé
(47.5801°N, 0.3280°W)
Time: 00:55:55
(UTC+02:00)
Language:

Explorer 7 - Orbit

View from above orbital plane
View from above orbital plane
View from above satellite
View from above satellite

Ground track
Ground track

The orbit data is extracted from the following two-line orbital elements,

1 00022U 59009A   22147.32001406  .00004442  00000-0  33975-3 0  9993
2 00022  50.2834  13.3849 0135190  89.3894 272.2543 14.96878681576467
Epoch (UTC): 27 May 2022 07:40:49
Eccentricity: 0.0135190
inclination: 50.2834°
perigee height: 482 km
apogee height: 670 km
right ascension of ascending node: 13.3849°
argument of perigee: 89.3894°
revolutions per day: 14.96878681
mean anomaly at epoch: 272.2543°
orbit number at epoch: 57646

The dashed part of the orbit path shows where the satellite is in the earth's shadow,  

DLR